Volver al catálogo

TITAN 34B AGENA R/B

ActivoHEO
NORAD 9271·ROCKET BODY·🇺🇸 United States

Lanzado Aug 6, 1976 desde Vandenberg Space Force Base

Loading…

Próximos Pases (próximas 24 horas)

TLE

ActualizadoSource: Space-Track

Época: Sep 13, 2026, 15:30 UTC

1 09271U 76080B   26256.64652127  .00000033  00000-0  46816-2 0  9997
2 09271  63.9863 241.6190 6567317 288.1347  14.0537  2.62858328 68937

Sigue TITAN 34B AGENA R/B en tiempo real con AllMySat

Download on the App Store